Weather History for CZOC - January, 2014

Change the Weather History Date:

Tuesday, January 14, 2014

  Actual Average Record
Temperature  
Mean Temperature -26 °F -  
Max Temperature -17 °F - - ()
Min Temperature -35 °F - - ()
Degree Days  
Heating Degree Days 91    
Moisture  
Dew Point -31 °F    
Average Humidity 69    
Maximum Humidity 74    
Minimum Humidity 51    
Precipitation  
Precipitation 0.00 in - - ()
Sea Level Pressure  
Sea Level Pressure 29.45 in    
Wind  
Wind Speed 2 mph ()    
Max Wind Speed 5 mph    
Max Gust Speed -    
T = Trace of Precipitation, MM = Missing Value Source: Averaged Metar Reports

Daily Weather History Graph

Daily Weather History Graph

Search for Another Location

Airport or City:

Trip Planner

Search our weather history database for the weather conditions in past years. The results will help you decide how hot, cold, wet, or windy it might be!

Date:

Astronomy

Jan. 14, 2014 Rise Set
Actual Time 11:44 AM PST 3:13 PM PST
Civil Twilight 10:09 AM PST 4:48 PM PST
Nautical Twilight 8:51 AM PST 6:05 PM PST
Astronomical Twilight 7:45 AM PST 7:12 PM PST
Moon 2:56 PM PST (1/14) 9:56 AM PST (1/14)
Length of Visible Light 6h 38m
Length of Day
3h 28m
Waxing Gibbous, 98% of the Moon is Illuminated
Jan 14
Waxing Gibbous
Jan 15
Full
Jan 23
Last Quarter
Jan 30
New
Feb 6
First Quarter

Hourly Weather History & Observations

Time (PST) Temp. Windchill Dew Point Humidity Pressure Visibility Wind Dir Wind Speed Gust Speed Precip Events Conditions
12:00 AM -35.3 °F - -43.2 °F 65% 29.76 in - West 2.3 mph - N/A   Unknown
1:00 AM -33.2 °F -45.7 °F -40.7 °F 67% 29.73 in - SW 3.5 mph - N/A   Unknown
2:00 AM -32.3 °F - -39.8 °F 67% 29.71 in - SSW 2.3 mph - N/A   Unknown
3:00 AM -31.0 °F - -38.4 °F 67% 29.67 in - West 2.3 mph - N/A   Unknown
4:00 AM -30 °F - -37 °F 51% 29.65 in - West 3.5 mph - -  
4:00 AM -29.7 °F -41.8 °F -37.1 °F 68% 29.65 in - West 3.5 mph - N/A   Unknown
5:00 AM -28.7 °F - -35.9 °F 68% 29.62 in - SSW 1.2 mph - N/A   Unknown
6:00 AM -27.9 °F - -35.0 °F 69% 29.59 in - Calm Calm - N/A   Unknown
7:00 AM -26.9 °F - -33.7 °F 70% 29.55 in - West 2.3 mph - N/A   Unknown
8:00 AM -25.6 °F - -32.4 °F 70% 29.52 in - Calm Calm - N/A   Unknown
9:00 AM -24.2 °F - -30.8 °F 71% 29.48 in - WSW 2.3 mph - N/A   Unknown
10:00 AM -24 °F - -30 °F 57% 29.45 in - Calm Calm - -  
10:00 AM -23.6 °F - -30.3 °F 71% 29.45 in - Calm Calm - N/A   Unknown
11:00 AM -23.3 °F -37.0 °F -29.9 °F 71% 29.43 in - West 4.6 mph - N/A   Unknown
12:00 PM -23.8 °F - -30.5 °F 71% 29.39 in - West 2.3 mph - N/A   Unknown
1:00 PM -22.9 °F - -29.4 °F 72% 29.33 in - Calm Calm - N/A   Unknown
2:00 PM -22.0 °F -33.0 °F -28.5 °F 72% 29.33 in - West 3.5 mph - N/A   Unknown
3:00 PM -21.5 °F - -27.8 °F 73% 29.30 in - SSW 1.2 mph - N/A   Unknown
4:00 PM -20 °F - -27 °F 56% 29.28 in - SW 2.3 mph - -  
4:00 PM -20.4 °F - -26.7 °F 73% 29.28 in - SW 2.3 mph - N/A   Unknown
5:00 PM -20.7 °F - -27.0 °F 73% 29.27 in - SW 2.3 mph - N/A   Unknown
6:00 PM -20.0 °F -30.7 °F -26.3 °F 73% 29.27 in - WSW 3.5 mph - N/A   Unknown
7:00 PM -19.5 °F -30.1 °F -25.8 °F 73% 29.26 in - SW 3.5 mph - N/A   Unknown
8:00 PM -18.4 °F - -24.5 °F 74% 29.29 in - SW 2.3 mph - N/A   Unknown
9:00 PM -17.7 °F - -23.6 °F 74% 29.31 in - SW 2.3 mph - N/A   Unknown
10:00 PM -18 °F - -23 °F 63% 29.35 in - WSW 1.2 mph - -  
10:00 PM -17.5 °F - -23.4 °F 74% 29.35 in - WSW 1.2 mph - N/A   Unknown
11:00 PM -18.8 °F -29.3 °F -24.9 °F 74% 29.41 in - SW 3.5 mph - N/A   Unknown